Peru, IN

6:11 PM EDT on May 20, 2018 (GMT -0400)
Grissom Air Reserve Base

Weather History for KGUS - January, 2012

Change the Weather History Date:

Sunday, January 1, 2012

  Actual Average Record
Temperature  
Mean Temperature 38 °F -  
Max Temperature 46 °F 32 °F 54 °F (2011)
Min Temperature 29 °F 21 °F -14 °F (2018)
Degree Days  
Heating Degree Days 28    
Moisture  
Dew Point 34 °F    
Average Humidity 89    
Maximum Humidity 100    
Minimum Humidity 60    
Precipitation  
Precipitation 0.09 in - - ()
Sea Level Pressure  
Sea Level Pressure 29.86 in    
Wind  
Wind Speed 23 mph (West)    
Max Wind Speed 34 mph    
Max Gust Speed 45 mph    
Visibility 10 miles    
Events Rain , Snow    
Averages and records for this station are not official NWS values.
T = Trace of Precipitation, MM = Missing Value Source: NWS Daily Summary

Daily Weather History Graph

Daily Weather History Graph

Search for Another Location

Airport or City:

Astronomy

Jan. 01, 2012 Rise Set
Actual Time 8:08 AM EST 5:27 PM EST
Civil Twilight 7:37 AM EST 5:58 PM EST
Nautical Twilight 7:03 AM EST 6:32 PM EST
Astronomical Twilight 6:30 AM EST 7:06 PM EST
Moon 12:17 PM EST (1/1) 1:01 AM EST (1/1)
Length of Visible Light 10h 20m
Length of Day
9h 19m
First Quarter, 54% of the Moon is Illuminated
Jan 1
First Quarter
Jan 9
Full
Jan 16
Last Quarter
Jan 23
New
Jan 30
First Quarter

Hourly Weather History & Observations

Time (EST) Temp. Windchill Dew Point Humidity Pressure Visibility Wind Dir Wind Speed Gust Speed Precip Events Conditions
12:55 AM 39.4 °F 30.4 °F 39.4 °F 100% 29.81 in 10.0 mi South 17.3 mph - N/A   Partly Cloudy
1:55 AM 41.5 °F 33.5 °F 41.5 °F 100% 29.74 in 10.0 mi SSE 16.1 mph - N/A   Overcast
2:55 AM 43.0 °F 34.8 °F 42.8 °F 99% 29.70 in 10.0 mi South 18.4 mph 23.0 mph N/A   Clear
3:55 AM 44.4 °F 36.6 °F 44.2 °F 99% 29.68 in 10.0 mi South 18.4 mph - N/A   Clear
4:55 AM 44.6 °F 37.8 °F 44.4 °F 99% 29.64 in 10.0 mi South 15.0 mph - N/A   Clear
5:55 AM 45.1 °F 38.1 °F 45.0 °F 99% 29.61 in 10.0 mi South 16.1 mph 25.3 mph N/A   Mostly Cloudy
6:55 AM 45.0 °F 37.9 °F 45.0 °F 100% 29.62 in 10.0 mi SSW 16.1 mph - N/A   Mostly Cloudy
7:06 AM 44.6 °F 37.8 °F 44.6 °F 100% 29.63 in 10.0 mi SSW 15.0 mph - N/A Rain Light Rain
7:16 AM 44.6 °F 37.8 °F 44.6 °F 100% 29.63 in 10.0 mi SW 15.0 mph - N/A   Mostly Cloudy
7:29 AM 44.6 °F 36.4 °F 44.6 °F 100% 29.63 in 10.0 mi WSW 20.7 mph - N/A   Mostly Cloudy
7:50 AM 46.4 °F 37.9 °F 46.4 °F 100% 29.64 in 10.0 mi West 25.3 mph 38.0 mph N/A   Light Drizzle
7:55 AM 45.3 °F 35.7 °F 45.3 °F 100% 29.64 in 10.0 mi West 29.9 mph 39.1 mph 0.01 in   Light Drizzle
8:42 AM 41.0 °F 30.7 °F 41.0 °F 100% 29.68 in 10.0 mi WSW 25.3 mph 35.7 mph N/A Rain Light Rain
8:52 AM 41.0 °F 30.7 °F 41.0 °F 100% 29.70 in 10.0 mi WSW 25.3 mph 38.0 mph N/A   Overcast
8:55 AM 40.8 °F 30.0 °F 40.8 °F 100% 29.70 in 10.0 mi WSW 27.6 mph 38.0 mph 0.00 in   Overcast
9:51 AM 39.2 °F 27.6 °F 39.2 °F 100% 29.71 in 10.0 mi WSW 28.8 mph 35.7 mph N/A   Light Drizzle
9:55 AM 39.9 °F 28.8 °F 39.9 °F 100% 29.71 in 10.0 mi WSW 27.6 mph 35.7 mph 0.00 in   Light Drizzle
10:16 AM 39.2 °F 27.0 °F 39.2 °F 100% 29.73 in 4.0 mi West 32.2 mph 39.1 mph N/A Rain Light Rain
10:24 AM 39.2 °F 27.0 °F 39.2 °F 100% 29.73 in 4.0 mi West 32.2 mph 41.4 mph N/A Rain Light Rain
10:29 AM 39.2 °F 27.0 °F 39.2 °F 100% 29.70 in 4.0 mi West 32.2 mph 41.4 mph N/A Rain Light Rain
10:55 AM 37.8 °F 25.2 °F 37.8 °F 100% 29.76 in 7.0 mi West 31.1 mph 44.9 mph 0.01 in Rain Light Rain
11:04 AM 37.4 °F 24.8 °F 37.4 °F 100% 29.77 in 10.0 mi WNW 31.1 mph 42.6 mph N/A Rain Light Rain
11:47 AM 37.4 °F 25.9 °F 37.4 °F 100% 29.81 in 10.0 mi WNW 25.3 mph 38.0 mph N/A   Overcast
11:55 AM 37.2 °F 24.5 °F 37.2 °F 100% 29.81 in 10.0 mi WNW 31.1 mph 39.1 mph 0.01 in   Light Drizzle
12:55 PM 37.6 °F 25.2 °F 37.6 °F 100% 29.83 in 10.0 mi West 29.9 mph 41.4 mph 0.02 in   Overcast
1:02 PM 37.4 °F 26.1 °F 37.4 °F 100% 29.84 in 10.0 mi WNW 24.2 mph 41.4 mph N/A   Overcast
1:55 PM 39.0 °F 27.6 °F 38.8 °F 99% 29.85 in 10.0 mi West 27.6 mph 36.8 mph 0.00 in   Overcast
2:55 PM 38.5 °F 26.4 °F 34.5 °F 86% 29.88 in 10.0 mi West 29.9 mph 38.0 mph 0.04 in   Mostly Cloudy
3:52 PM 35.6 °F 23.0 °F 26.6 °F 70% 29.92 in 10.0 mi WNW 27.6 mph 39.1 mph N/A Snow Light Snow
3:55 PM 34.9 °F 21.5 °F 25.2 °F 68% 29.94 in 10.0 mi West 29.9 mph 36.8 mph 0.00 in Snow Light Snow
4:03 PM 33.8 °F 20.3 °F 23.0 °F 65% 29.95 in 10.0 mi West 28.8 mph 39.1 mph N/A   Overcast
4:31 PM 33.8 °F 19.6 °F 21.2 °F 60% 29.98 in 10.0 mi West 32.2 mph 41.4 mph N/A Rain Light Rain
4:55 PM 33.3 °F 19.6 °F 24.1 °F 69% 30.01 in 10.0 mi West 28.8 mph 36.8 mph 0.00 in   Overcast
5:20 PM 32.0 °F 16.7 °F 23.0 °F 69% 30.02 in 10.0 mi West 34.5 mph 43.7 mph N/A Snow Light Snow Showers
5:55 PM 32.2 °F 18.6 °F 23.5 °F 70% 30.04 in 10.0 mi West 26.5 mph 38.0 mph 0.00 in Snow Light Snow Showers
6:35 PM 32.0 °F 18.9 °F 30.2 °F 93% 30.06 in 10.0 mi West 24.2 mph 34.5 mph N/A   Overcast
6:55 PM 31.8 °F 17.9 °F 27.7 °F 85% 30.06 in 10.0 mi West 27.6 mph 38.0 mph 0.00 in   Overcast
7:55 PM 31.3 °F 17.7 °F 25.9 °F 80% 30.07 in 10.0 mi West 25.3 mph 36.8 mph N/A   Overcast
8:40 PM 32.0 °F 18.4 °F 26.6 °F 80% 30.08 in 10.0 mi West 26.5 mph 36.8 mph N/A Snow Light Snow Showers
8:51 PM 32.0 °F 18.1 °F 24.8 °F 75% 30.08 in 10.0 mi West 27.6 mph 35.7 mph N/A   Overcast
8:55 PM 31.1 °F 17.2 °F 24.3 °F 76% 30.08 in 10.0 mi West 26.5 mph 35.7 mph 0.00 in   Overcast
9:37 PM 30.2 °F 16.8 °F 24.8 °F 80% 30.08 in 10.0 mi West 23.0 mph 33.4 mph N/A Snow Light Snow Showers
9:55 PM 30.4 °F 16.2 °F 23.9 °F 77% 30.07 in 10.0 mi West 26.5 mph 35.7 mph 0.00 in   Overcast
10:16 PM 30.2 °F 16.8 °F 23.0 °F 75% 30.07 in 10.0 mi West 23.0 mph 31.1 mph N/A Snow Light Snow Showers
10:55 PM 29.8 °F 16.3 °F 24.4 °F 80% 30.08 in 10.0 mi West 23.0 mph 34.5 mph 0.00 in Snow Light Snow Showers
11:16 PM 30.2 °F 18.1 °F 23.0 °F 75% 30.08 in 10.0 mi West 18.4 mph 32.2 mph N/A   Overcast
11:19 PM 30.2 °F 16.5 °F 23.0 °F 75% 30.07 in 10.0 mi West 24.2 mph 29.9 mph N/A   Overcast
11:39 PM 30.2 °F 17.1 °F 24.8 °F 80% 30.07 in 10.0 mi West 21.9 mph 32.2 mph N/A   Overcast
11:41 PM 30.2 °F 15.4 °F 24.8 °F 80% 30.07 in 10.0 mi West 28.8 mph 38.0 mph N/A   Overcast
11:55 PM 29.5 °F 15.5 °F 25.2 °F 84% 30.07 in 10.0 mi West 24.2 mph 33.4 mph 0.00 in   Overcast